• In Hungary
  • List of Countries
  • For 7 days
  • Water Temperature
  • Satellite Maps
  • Weather Map
  • News
  • Weather Widgets
  • user-avatar
    Login

    Hourly Weather Wevelgem

    Today, 15 December, Friday

    Time Temperature Precipitation Wind Pressure Humidity
    00:00 +1°C° 0 mm 4 mps 742 mmHg 87%
    01:00 +1°C° 0 mm 4 mps 742 mmHg 88%
    02:00 +1°C° 0 mm 4 mps 742 mmHg 89%
    03:00 +1°C° 0 mm 4 mps 742 mmHg 90%
    04:00 +1°C° 0 mm 4 mps 742 mmHg 90%
    05:00 0°C° 0 mm 4 mps 742 mmHg 90%
    06:00 +1°C° 0 mm 3 mps 742 mmHg 90%
    07:00 +2°C° 0.1 mm 3 mps 742 mmHg 89%
    08:00 +2°C° 0.1 mm 3 mps 743 mmHg 88%
    09:00 +2°C° 0.1 mm 3 mps 743 mmHg 88%
    10:00 +3°C° 0.2 mm 4 mps 743 mmHg 86%
    11:00 +4°C° 0.2 mm 4 mps 744 mmHg 85%
    12:00 +4°C° 0.2 mm 4 mps 744 mmHg 83%
    13:00 +4°C° 0.1 mm 3 mps 745 mmHg 83%
    14:00 +4°C° 0.1 mm 3 mps 745 mmHg 84%
    15:00 +4°C° 0.1 mm 3 mps 746 mmHg 84%
    16:00 +4°C° 0.1 mm 3 mps 747 mmHg 85%
    17:00 +3°C° 0.1 mm 3 mps 747 mmHg 86%
    18:00 +3°C° 0.1 mm 3 mps 748 mmHg 87%
    19:00 +1°C° 0 mm 4 mps 749 mmHg 87%
    20:00 +1°C° 0 mm 4 mps 750 mmHg 87%
    21:00 +1°C° 0 mm 4 mps 751 mmHg 87%
    22:00 +1°C° 0.1 mm 4 mps 752 mmHg 87%
    23:00 +1°C° 0.1 mm 4 mps 753 mmHg 87%

    Tomorrow, 16 December, Saturday

    Time Temperature Precipitation Wind Pressure Humidity
    00:00 +1°C° 0.1 mm 4 mps 754 mmHg 87%
    01:00 +1°C° 0.1 mm 4 mps 754 mmHg 86%
    02:00 +1°C° 0.1 mm 4 mps 755 mmHg 85%
    03:00 +3°C° 0.1 mm 4 mps 755 mmHg 84%
    04:00 +2°C° 0.2 mm 5 mps 756 mmHg 83%
    05:00 +2°C° 0.2 mm 5 mps 757 mmHg 83%
    06:00 +2°C° 0.2 mm 5 mps 757 mmHg 82%
    07:00 +2°C° 0.2 mm 5 mps 758 mmHg 82%
    08:00 +2°C° 0.2 mm 5 mps 758 mmHg 81%
    09:00 +2°C° 0.2 mm 5 mps 759 mmHg 81%
    10:00 +2°C° 0.2 mm 6 mps 759 mmHg 78%
    11:00 +3°C° 0.2 mm 6 mps 760 mmHg 75%
    12:00 +3°C° 0.2 mm 7 mps 760 mmHg 72%
    13:00 +3°C° 0.1 mm 6 mps 761 mmHg 73%
    14:00 +3°C° 0.1 mm 6 mps 761 mmHg 75%
    15:00 +2°C° 0.1 mm 5 mps 762 mmHg 76%
    16:00 +2°C° 0.1 mm 5 mps 762 mmHg 77%
    17:00 +1°C° 0.1 mm 5 mps 763 mmHg 78%
    18:00 +1°C° 0.1 mm 4 mps 763 mmHg 80%
    19:00 0°C° 0 mm 4 mps 764 mmHg 81%
    20:00 0°C° 0 mm 4 mps 764 mmHg 81%
    21:00 +1°C° 0 mm 3 mps 765 mmHg 82%
    22:00 +1°C° 0 mm 3 mps 765 mmHg 83%
    23:00 +1°C° 0 mm 3 mps 765 mmHg 83%

    Day after tomorrow, 17 December, Sunday

    Time Temperature Precipitation Wind Pressure Humidity
    00:00 +1°C° 0 mm 3 mps 766 mmHg 84%
    01:00 +1°C° 0 mm 3 mps 766 mmHg 84%
    02:00 +1°C° 0 mm 3 mps 766 mmHg 84%
    03:00 +1°C° 0 mm 3 mps 767 mmHg 85%
    04:00 +1°C° 0 mm 3 mps 767 mmHg 85%
    05:00 +1°C° 0 mm 3 mps 767 mmHg 85%
    06:00 0°C° 0 mm 3 mps 768 mmHg 86%
    07:00 +1°C° 0 mm 3 mps 768 mmHg 85%
    08:00 +1°C° 0 mm 3 mps 769 mmHg 84%
    09:00 +1°C° 0 mm 3 mps 769 mmHg 83%
    10:00 +2°C° 0 mm 3 mps 769 mmHg 78%
    11:00 +3°C° 0 mm 4 mps 769 mmHg 72%
    12:00 +4°C° 0 mm 4 mps 769 mmHg 67%
    13:00 +4°C° 0 mm 4 mps 769 mmHg 70%
    14:00 +4°C° 0 mm 4 mps 769 mmHg 74%
    15:00 +4°C° 0 mm 4 mps 768 mmHg 77%
    16:00 +3°C° 0 mm 4 mps 768 mmHg 80%
    17:00 +2°C° 0 mm 5 mps 768 mmHg 84%
    18:00 +2°C° 0 mm 5 mps 768 mmHg 87%
    19:00 +3°C° 0 mm 5 mps 768 mmHg 89%
    20:00 +3°C° 0 mm 6 mps 768 mmHg 90%
    21:00 +3°C° 0 mm 6 mps 768 mmHg 91%
    22:00 +4°C° 0.1 mm 7 mps 768 mmHg 90%
    23:00 +5°C° 0.1 mm 7 mps 768 mmHg 90%

    18 December, Monday

    Time Temperature Precipitation Wind Pressure Humidity
    00:00 +6°C° 0.1 mm 8 mps 767 mmHg 89%
    01:00 +6°C° 0.4 mm 8 mps 767 mmHg 88%
    02:00 +6°C° 0.4 mm 8 mps 767 mmHg 88%
    03:00 +7°C° 0.4 mm 8 mps 767 mmHg 87%
    04:00 +7°C° 0.5 mm 8 mps 767 mmHg 89%
    05:00 +8°C° 0.5 mm 7 mps 767 mmHg 90%
    06:00 +8°C° 0.5 mm 6 mps 767 mmHg 91%
    07:00 +8°C° 0.1 mm 6 mps 768 mmHg 91%
    08:00 +8°C° 0.1 mm 5 mps 768 mmHg 91%
    09:00 +8°C° 0.1 mm 4 mps 769 mmHg 91%
    10:00 +8°C° 0.1 mm 4 mps 769 mmHg 88%
    11:00 +9°C° 0.1 mm 3 mps 769 mmHg 84%
    12:00 +9°C° 0.1 mm 3 mps 769 mmHg 81%
    13:00 +8°C° 0 mm 3 mps 770 mmHg 81%
    14:00 +8°C° 0 mm 2 mps 770 mmHg 81%
    15:00 +7°C° 0 mm 2 mps 770 mmHg 81%
    16:00 +8°C° 0 mm 1 mps 771 mmHg 83%
    17:00 +7°C° 0 mm 1 mps 771 mmHg 85%
    18:00 +6°C° 0 mm 1 mps 772 mmHg 87%
    19:00 +6°C° 0 mm 1 mps 772 mmHg 87%
    20:00 +6°C° 0 mm 1 mps 772 mmHg 87%
    21:00 +5°C° 0 mm 1 mps 773 mmHg 88%
    22:00 +5°C° 0 mm 1 mps 773 mmHg 88%
    23:00 +4°C° 0 mm 2 mps 773 mmHg 88%

    19 December, Tuesday

    Time Temperature Precipitation Wind Pressure Humidity
    00:00 +4°C° 0 mm 2 mps 774 mmHg 88%
    01:00 +4°C° 0 mm 2 mps 774 mmHg 88%
    02:00 +4°C° 0 mm 2 mps 774 mmHg 88%
    03:00 +4°C° 0 mm 2 mps 774 mmHg 88%
    04:00 +3°C° 0 mm 2 mps 774 mmHg 88%
    05:00 +2°C° 0 mm 3 mps 774 mmHg 88%
    06:00 +2°C° 0 mm 3 mps 774 mmHg 88%
    07:00 +3°C° 0 mm 3 mps 774 mmHg 88%
    08:00 +3°C° 0 mm 3 mps 775 mmHg 87%
    09:00 +4°C° 0 mm 3 mps 775 mmHg 87%
    10:00 +5°C° 0 mm 3 mps 775 mmHg 87%
    11:00 +5°C° 0 mm 3 mps 775 mmHg 88%
    12:00 +6°C° 0 mm 4 mps 775 mmHg 88%
    13:00 +7°C° 0.1 mm 3 mps 775 mmHg 90%
    14:00 +7°C° 0.1 mm 3 mps 775 mmHg 91%
    15:00 +8°C° 0.1 mm 3 mps 775 mmHg 93%
    16:00 +8°C° 0.1 mm 3 mps 775 mmHg 94%
    17:00 +8°C° 0.1 mm 3 mps 775 mmHg 95%
    18:00 +8°C° 0.1 mm 3 mps 775 mmHg 96%
    19:00 +9°C° 0.1 mm 3 mps 775 mmHg 96%
    20:00 +9°C° 0.1 mm 3 mps 776 mmHg 96%
    21:00 +9°C° 0.1 mm 3 mps 776 mmHg 97%
    22:00 +9°C° 0 mm 3 mps 776 mmHg 97%
    23:00 +9°C° 0 mm 3 mps 776 mmHg 97%

    20 December, Wednesday

    Time Temperature Precipitation Wind Pressure Humidity
    00:00 +10°C° 0 mm 3 mps 776 mmHg 97%
    01:00 +10°C° 0 mm 3 mps 776 mmHg 97%
    02:00 +10°C° 0 mm 3 mps 776 mmHg 97%
    03:00 +10°C° 0 mm 3 mps 776 mmHg 97%
    04:00 +10°C° 0 mm 3 mps 776 mmHg 96%
    05:00 +10°C° 0 mm 3 mps 776 mmHg 96%
    06:00 +10°C° 0 mm 3 mps 776 mmHg 96%
    07:00 +10°C° 0 mm 3 mps 776 mmHg 96%
    08:00 +10°C° 0 mm 3 mps 776 mmHg 96%
    09:00 +10°C° 0 mm 3 mps 777 mmHg 96%
    10:00 +10°C° 0 mm 3 mps 777 mmHg 95%
    11:00 +11°C° 0 mm 3 mps 777 mmHg 93%
    12:00 +11°C° 0 mm 3 mps 777 mmHg 92%
    13:00 +11°C° 0 mm 3 mps 777 mmHg 92%
    14:00 +11°C° 0 mm 3 mps 777 mmHg 92%
    15:00 +11°C° 0 mm 3 mps 777 mmHg 93%
    16:00 +10°C° 0 mm 3 mps 777 mmHg 93%
    17:00 +10°C° 0 mm 2 mps 777 mmHg 94%
    18:00 +9°C° 0 mm 2 mps 777 mmHg 95%
    19:00 +9°C° 0 mm 2 mps 777 mmHg 95%
    20:00 +8°C° 0 mm 2 mps 777 mmHg 95%
    21:00 +8°C° 0 mm 2 mps 778 mmHg 95%
    22:00 +8°C° 0 mm 3 mps 777 mmHg 95%
    23:00 +8°C° 0 mm 3 mps 777 mmHg 95%
    Show more